Regional Weather Roundup
Issued by NWS Midland/Odessa, TX

Skip options and go directly to product.
Home | Oldest Version | Next Version | Current Version | All | Text Only | Save Text | Print | Product List | Glossary On

Skip product version selection by date and time.   
646
ASUS44 KMAF 230702
RWRMAF
MIDLAND AREA WEATHER ROUNDUP
NATIONAL WEATHER SERVICE MIDLAND TX
200 AM CDT THU OCT 23 2014

...IN SOUTHWEST TEXAS AND SOUTHEAST NEW MEXICO...

CITY           SKY/WX    TMP DP  RH WIND       PRES   REMARKS
ALPINE         CLEAR     57  55  93 SW5       30.24S
ANDREWS        MOCLDY    56  55  95 S8        30.13F
ARTESIA        NOT AVBL
BIG SPRING     CLEAR     59  54  85 S6        30.15S
CARLSBAD       CLEAR     59  57  93 S5        30.11S FOG
DRYDEN           N/A     62  60  93 CALM      30.12S
FORT STOCKTON  CLEAR     60  58  92 S10       30.11F
GUAD PASS      NOT AVBL
HOBBS          CLOUDY    55  55 100 S8        30.15S
MARFA          CLOUDY    57  55  94 SE5       30.24S
MIDLAND AIRPK  CLEAR     57  53  86 S5        30.13F
MIDLAND INTL   CLEAR     58  54  86 S6        30.12F
ODESSA         CLEAR     59  55  87 S9        30.13S
PECOS          CLEAR     59  57  94 CALM      30.09S
PRESIDIO       FAIR      66  60  82 N9        30.13R
SEMINOLE       CLEAR     53  52  95 SW3       30.15S
SNYDER         CLOUDY    58  56  91 S3        30.13F
WINK           CLEAR     59  58  96 E5        30.10S
$$
...OTHER STATIONS IN TEXAS...

CITY           SKY/WX    TMP DP  RH WIND       PRES   REMARKS
ABILENE        PTCLDY    60  55  83 S5        30.12R
AMARILLO       MOCLDY    61  59  93 S16       30.12S
AUSTIN         LGT RAIN  67  61  81 SE7       30.09S
BROWNSVILLE    CLEAR     71  67  87 NE5       30.01F
CORPUS CHRISTI PTCLDY    71  63  75 E6        30.04F
DALLAS FTW     LGT RAIN  68  52  56 SE9       30.11R
DEL RIO        FOG       64  63  96 NW5       30.10R VSB 3/4
EL PASO        CLEAR     60  54  80 SE3       30.13S
HOUSTON INT    MOCLDY    62  57  83 CALM      30.09R
LUBBOCK        MOCLDY    57  55  93 S7        30.14S FOG
SAN ANGELO     CLEAR     57  54  89 SW7       30.12S
SAN ANTONIO    CLOUDY    71  60  68 SE8       30.10S
WACO           CLOUDY    66  58  75 CALM      30.11R
WICHITA FALLS  NOT AVBL
$$
...OTHER LOCATIONS IN NEW MEXICO...

CITY           SKY/WX    TMP DP  RH WIND       PRES   REMARKS
ALAMAGORDO     NOT AVBL
ALBUQUERQUE    CLEAR     57  44  62 SE6       30.20S
CANNON AFB     FOG       55  55  98 S6        30.15R VSB 1/2
CLOVIS         CLOUDY    59  55  88 S18G24    30.16F
HOLLOMAN AFB   CLEAR     55  49  79 E2        30.14R
ROSWELL        CLEAR     57  56  96 S7        30.11S FOG
RUIDOSO        CLEAR     46  39  76 SW8       30.29S
SANTA FE       CLEAR     51  35  54 CALM      30.23S
TRUTH OR CONSE   N/A     56  51  84 W7        30.17R
TUCUMCARI      CLEAR     61  54  77 SW14      30.10S
$$

USA.gov is the U.S. government's official web portal to all federal, state and local government web resources and services.